Weather History for Pensacola NAS, FL

Change the Weather History Date:

Friday, November 25, 2011

  Actual Average Record
Temperature  
Mean Temperature 60 °F -  
Max Temperature 69 °F 67 °F 80 °F (2001)
Min Temperature 50 °F 48 °F 30 °F (2012)
Degree Days  
Heating Degree Days 6    
Growing Degree Days 10 (Base 50)    
Moisture  
Dew Point 55 °F    
Average Humidity 76    
Maximum Humidity 90    
Minimum Humidity 63    
Precipitation  
Precipitation 0.00 in - - ()
Sea Level Pressure  
Sea Level Pressure 30.22 in    
Wind  
Wind Speed 11 mph (East)    
Max Wind Speed 16 mph    
Max Gust Speed 23 mph    
Visibility 10 miles    
Events      
Averages and records for this station are not official NWS values.
T = Trace of Precipitation, MM = Missing Value Source: NWS Daily Summary

Daily Weather History Graph

Daily Weather History Graph

Search for Another Location

Airport:

Trip Planner

Search our weather history database for the weather conditions in past years. The results will help you decide how hot, cold, wet, or windy it might be!

Date:

Astronomy

Nov. 25, 2011 Rise Set
Actual Time 6:23 AM CST 4:49 PM CST
Civil Twilight 5:57 AM CST 5:14 PM CST
Nautical Twilight 5:27 AM CST 5:44 PM CST
Astronomical Twilight 4:59 AM CST 6:13 PM CST
Moon 6:46 AM CST (11/25) 5:20 PM CST (11/25)
Length of Visible Light 11h 17m
Length of Day
10h 25m
New Moon, 0% of the Moon is Illuminated
Nov 25
New Moon
Dec 2
First Quarter
Dec 10
Full
Dec 17
Last Quarter
Dec 24
New

Hourly Weather History & Observations

Time (CST) Temp. Dew Point Humidity Pressure Visibility Wind Dir Wind Speed Gust Speed Precip Events Conditions
12:56 AM 50.0 °F 45.0 °F 83% 30.25 in 10.0 mi NE 8.1 mph - N/A   Clear
1:56 AM 50.0 °F 46.0 °F 86% 30.25 in 10.0 mi NE 8.1 mph - N/A   Clear
2:56 AM 55.9 °F 51.1 °F 84% 30.26 in 10.0 mi ENE 8.1 mph - N/A   Clear
3:56 AM 55.0 °F 51.1 °F 86% 30.26 in 10.0 mi NE 9.2 mph - N/A   Mostly Cloudy
4:56 AM 55.0 °F 52.0 °F 89% 30.25 in 10.0 mi ENE 10.4 mph - N/A   Clear
5:56 AM 55.9 °F 53.1 °F 90% 30.26 in 10.0 mi ENE 12.7 mph - N/A   Clear
6:11 AM 55.4 °F 51.8 °F 88% 30.25 in 10.0 mi ENE 11.5 mph - N/A   Scattered Clouds
6:56 AM 57.0 °F 53.1 °F 87% 30.28 in 10.0 mi ENE 10.4 mph - N/A   Scattered Clouds
7:10 AM 57.2 °F 53.6 °F 88% 30.27 in 10.0 mi ENE 8.1 mph - N/A   Mostly Cloudy
7:56 AM 59.0 °F 54.0 °F 83% 30.28 in 10.0 mi ENE 11.5 mph - N/A   Scattered Clouds
8:56 AM 64.0 °F 57.0 °F 78% 30.28 in 10.0 mi East 16.1 mph 23.0 mph N/A   Scattered Clouds
9:56 AM 64.9 °F 55.9 °F 73% 30.28 in 10.0 mi East 13.8 mph - N/A   Partly Cloudy
10:56 AM 66.9 °F 57.0 °F 70% 30.26 in 10.0 mi East 15.0 mph 23.0 mph N/A   Partly Cloudy
11:56 AM 68.0 °F 57.9 °F 70% 30.24 in 10.0 mi East 15.0 mph 21.9 mph N/A   Scattered Clouds
12:56 PM 69.1 °F 59.0 °F 70% 30.22 in 10.0 mi East 16.1 mph - N/A   Scattered Clouds
1:56 PM 69.1 °F 57.9 °F 68% 30.20 in 10.0 mi East 13.8 mph 21.9 mph N/A   Scattered Clouds
2:56 PM 69.1 °F 57.9 °F 68% 30.19 in 10.0 mi East 13.8 mph - N/A   Scattered Clouds
3:56 PM 68.0 °F 57.0 °F 68% 30.18 in 10.0 mi East 13.8 mph - N/A   Scattered Clouds
4:56 PM 64.9 °F 55.9 °F 73% 30.17 in 10.0 mi East 9.2 mph - N/A   Mostly Cloudy
5:56 PM 64.0 °F 55.9 °F 75% 30.17 in 10.0 mi East 9.2 mph - N/A   Mostly Cloudy
6:56 PM 66.0 °F 57.0 °F 73% 30.18 in 10.0 mi ESE 11.5 mph - N/A   Mostly Cloudy
7:56 PM 66.9 °F 55.0 °F 66% 30.18 in 10.0 mi ESE 11.5 mph - N/A   Mostly Cloudy
8:56 PM 66.9 °F 54.0 °F 63% 30.17 in 10.0 mi ESE 15.0 mph - N/A   Scattered Clouds
9:56 PM 68.0 °F 55.9 °F 65% 30.17 in 10.0 mi SE 11.5 mph - N/A   Mostly Cloudy
10:56 PM 69.1 °F 59.0 °F 70% 30.15 in 10.0 mi SE 15.0 mph - N/A   Scattered Clouds
11:56 PM 69.1 °F 60.1 °F 73% 30.14 in 10.0 mi SE 9.2 mph - N/A   Mostly Cloudy